Time,TemperatureF,DewpointF,PressureIn,WindDirection,WindDirectionDegrees,WindSpeedMPH,WindSpeedGustMPH,Humidity,HourlyPrecipIn,Conditions,Clouds,dailyrainin,SoftwareType,DateUTC
2013-12-22 00:04:00,68.4,66.3,29.71,SSW,200,0.0,0.0,93,0.07,,,0.00,WeatherTracker,2013-12-22 06:04:00,
2013-12-22 00:09:00,68.2,66.4,29.72,SW,227,0.0,0.0,94,0.07,,,0.03,WeatherTracker,2013-12-22 06:09:00,
2013-12-22 00:14:00,68.1,66.3,29.71,SSW,192,0.0,0.0,94,0.07,,,0.04,WeatherTracker,2013-12-22 06:14:00,
2013-12-22 00:19:00,68.0,66.2,29.71,SSW,192,0.0,0.0,94,0.07,,,0.04,WeatherTracker,2013-12-22 06:19:00,
2013-12-22 00:24:00,67.9,66.1,29.70,SSW,209,0.0,0.0,94,0.07,,,0.04,WeatherTracker,2013-12-22 06:24:00,
2013-12-22 00:29:00,67.8,66.3,29.71,West,273,0.0,0.0,95,0.07,,,0.04,WeatherTracker,2013-12-22 06:29:00,
2013-12-22 00:34:00,67.7,66.2,29.71,SW,222,4.0,0.0,95,0.07,,,0.04,WeatherTracker,2013-12-22 06:34:00,
2013-12-22 00:39:00,67.7,66.2,29.71,SW,218,0.0,0.0,95,0.07,,,0.04,WeatherTracker,2013-12-22 06:39:00,
2013-12-22 00:44:00,67.8,66.3,29.71,SW,236,2.0,0.0,95,0.06,,,0.04,WeatherTracker,2013-12-22 06:44:00,
2013-12-22 00:49:00,67.8,66.3,29.72,SW,221,4.0,0.0,95,0.06,,,0.04,WeatherTracker,2013-12-22 06:49:00,
2013-12-22 00:54:00,67.8,66.3,29.73,SW,223,0.0,0.0,95,0.05,,,0.04,WeatherTracker,2013-12-22 06:54:00,
2013-12-22 00:59:00,67.8,66.3,29.73,SW,227,3.0,0.0,95,0.05,,,0.04,WeatherTracker,2013-12-22 06:59:00,
2013-12-22 01:04:00,67.8,66.3,29.73,WSW,237,4.0,0.0,95,0.04,,,0.04,WeatherTracker,2013-12-22 07:04:00,
2013-12-22 01:09:00,67.3,65.2,29.76,NW,309,6.0,0.0,93,0.01,,,0.04,WeatherTracker,2013-12-22 07:09:00,
2013-12-22 01:14:00,64.9,60.9,29.77,WNW,290,17.0,0.0,87,0.01,,,0.05,WeatherTracker,2013-12-22 07:14:00,
2013-12-22 01:19:00,63.0,59.7,29.78,WSW,257,7.0,0.0,89,0.06,,,0.10,WeatherTracker,2013-12-22 07:19:00,
2013-12-22 01:24:00,61.5,58.5,29.77,SW,221,6.0,0.0,90,0.20,,,0.24,WeatherTracker,2013-12-22 07:24:00,
2013-12-22 01:29:00,60.3,57.7,29.78,SW,225,3.0,0.0,91,0.29,,,0.33,WeatherTracker,2013-12-22 07:29:00,
2013-12-22 01:34:00,59.5,57.2,29.79,WNW,293,2.0,0.0,92,0.41,,,0.45,WeatherTracker,2013-12-22 07:34:00,
2013-12-22 01:39:00,59.0,57.0,29.79,West,263,1.0,0.0,93,0.51,,,0.55,WeatherTracker,2013-12-22 07:39:00,
2013-12-22 01:44:00,58.6,56.6,29.79,West,260,3.0,0.0,93,0.56,,,0.60,WeatherTracker,2013-12-22 07:44:00,
2013-12-22 01:49:00,58.0,56.0,29.80,WNW,297,0.0,0.0,93,0.61,,,0.65,WeatherTracker,2013-12-22 07:49:00,
2013-12-22 01:54:00,57.5,55.5,29.79,WSW,238,0.0,0.0,93,0.63,,,0.67,WeatherTracker,2013-12-22 07:54:00,
2013-12-22 02:01:00,57.0,55.3,29.79,SW,234,0.0,0.0,94,0.65,,,0.69,WeatherTracker,2013-12-22 08:01:00,
2013-12-22 02:06:00,56.7,55.0,29.79,SW,230,7.0,0.0,94,0.67,,,0.71,WeatherTracker,2013-12-22 08:06:00,
2013-12-22 02:11:00,56.3,54.6,29.79,WSW,244,0.0,0.0,94,0.69,,,0.73,WeatherTracker,2013-12-22 08:11:00,
2013-12-22 02:16:00,56.1,54.4,29.79,West,281,4.0,0.0,94,0.70,,,0.75,WeatherTracker,2013-12-22 08:16:00,
2013-12-22 02:21:00,56.0,54.6,29.78,SW,230,3.0,0.0,95,0.74,,,0.79,WeatherTracker,2013-12-22 08:21:00,
2013-12-22 02:26:00,55.9,54.5,29.79,WSW,237,0.0,0.0,95,0.75,,,0.80,WeatherTracker,2013-12-22 08:26:00,
2013-12-22 02:31:00,55.8,54.4,29.80,SW,236,0.0,0.0,95,0.48,,,0.81,WeatherTracker,2013-12-22 08:31:00,
2013-12-22 02:36:00,55.8,54.4,29.80,SW,236,3.0,0.0,95,0.50,,,0.83,WeatherTracker,2013-12-22 08:36:00,
2013-12-22 02:41:00,55.7,54.3,29.80,WSW,248,2.0,0.0,95,0.51,,,0.84,WeatherTracker,2013-12-22 08:41:00,
2013-12-22 02:46:00,55.7,54.3,29.78,SW,233,0.0,0.0,95,0.23,,,0.84,WeatherTracker,2013-12-22 08:46:00,
2013-12-22 02:51:00,55.6,54.2,29.77,SW,231,0.0,0.0,95,0.25,,,0.86,WeatherTracker,2013-12-22 08:51:00,
2013-12-22 02:56:00,55.5,54.1,29.79,SW,231,0.0,0.0,95,0.27,,,0.88,WeatherTracker,2013-12-22 08:56:00,
2013-12-22 03:01:00,55.4,54.3,29.79,SW,231,0.0,0.0,96,0.24,,,0.93,WeatherTracker,2013-12-22 09:01:00,
2013-12-22 03:06:00,55.3,54.2,29.78,SW,230,0.0,0.0,96,0.23,,,0.94,WeatherTracker,2013-12-22 09:06:00,
2013-12-22 03:11:00,55.1,53.7,29.80,SW,230,0.0,0.0,95,0.23,,,0.96,WeatherTracker,2013-12-22 09:11:00,
2013-12-22 03:16:00,55.0,53.6,29.80,SW,230,0.0,0.0,95,0.26,,,1.01,WeatherTracker,2013-12-22 09:16:00,
2013-12-22 03:21:00,54.9,53.5,29.80,SW,230,0.0,0.0,95,0.24,,,1.03,WeatherTracker,2013-12-22 09:21:00,
2013-12-22 03:26:00,54.7,53.3,29.79,SW,231,0.0,0.0,95,0.23,,,1.03,WeatherTracker,2013-12-22 09:26:00,
2013-12-22 03:31:00,54.6,53.5,29.81,SW,231,3.0,0.0,96,0.23,,,1.05,WeatherTracker,2013-12-22 09:31:00,
2013-12-22 03:36:00,54.6,53.5,29.80,SW,231,4.0,0.0,96,0.26,,,1.09,WeatherTracker,2013-12-22 09:36:00,
2013-12-22 03:41:00,54.6,53.5,29.79,SW,231,0.0,0.0,96,0.28,,,1.12,WeatherTracker,2013-12-22 09:41:00,
2013-12-22 03:46:00,54.7,53.6,29.79,SW,232,0.0,0.0,96,0.28,,,1.13,WeatherTracker,2013-12-22 09:46:00,
2013-12-22 03:51:00,54.7,53.6,29.77,SW,232,2.0,0.0,96,0.28,,,1.14,WeatherTracker,2013-12-22 09:51:00,
2013-12-22 03:57:00,54.8,53.7,29.80,WSW,238,4.0,0.0,96,0.25,,,1.14,WeatherTracker,2013-12-22 09:57:00,
2013-12-22 04:02:00,54.8,53.7,29.77,WSW,242,0.0,0.0,96,0.24,,,1.17,WeatherTracker,2013-12-22 10:02:00,
2013-12-22 04:07:00,54.8,53.7,29.78,WSW,240,1.0,0.0,96,0.24,,,1.19,WeatherTracker,2013-12-22 10:07:00,
2013-12-22 04:12:00,54.8,53.7,29.83,SW,230,3.0,0.0,96,0.23,,,1.19,WeatherTracker,2013-12-22 10:12:00,
2013-12-22 04:17:00,54.7,53.6,29.80,West,266,5.0,0.0,96,0.18,,,1.19,WeatherTracker,2013-12-22 10:17:00,
2013-12-22 04:22:00,54.7,53.6,29.78,WNW,296,4.0,0.0,96,0.16,,,1.19,WeatherTracker,2013-12-22 10:22:00,
2013-12-22 04:27:00,54.7,53.6,29.78,NW,313,0.0,0.0,96,0.16,,,1.19,WeatherTracker,2013-12-22 10:27:00,
2013-12-22 04:32:00,54.7,53.6,29.80,West,281,4.0,0.0,96,0.16,,,1.21,WeatherTracker,2013-12-22 10:32:00,
2013-12-22 04:37:00,54.6,53.5,29.82,WSW,241,0.0,0.0,96,0.12,,,1.22,WeatherTracker,2013-12-22 10:37:00,
2013-12-22 04:42:00,54.6,53.5,29.82,WSW,242,0.0,0.0,96,0.11,,,1.24,WeatherTracker,2013-12-22 10:42:00,
2013-12-22 04:47:00,54.6,53.5,29.84,WSW,254,0.0,0.0,96,0.12,,,1.26,WeatherTracker,2013-12-22 10:47:00,
2013-12-22 04:52:00,54.6,53.5,29.81,West,261,0.0,0.0,96,0.14,,,1.28,WeatherTracker,2013-12-22 10:52:00,
2013-12-22 04:57:00,54.6,53.5,29.82,WSW,240,2.0,0.0,96,0.16,,,1.30,WeatherTracker,2013-12-22 10:57:00,
2013-12-22 05:02:00,54.5,53.4,29.82,WNW,292,0.0,0.0,96,0.15,,,1.32,WeatherTracker,2013-12-22 11:02:00,
2013-12-22 05:07:00,54.5,53.4,29.83,West,265,0.0,0.0,96,0.15,,,1.34,WeatherTracker,2013-12-22 11:07:00,
2013-12-22 05:12:00,54.4,53.3,29.83,West,265,0.0,0.0,96,0.16,,,1.35,WeatherTracker,2013-12-22 11:12:00,
2013-12-22 05:17:00,54.3,53.2,29.83,West,271,0.0,0.0,96,0.17,,,1.36,WeatherTracker,2013-12-22 11:17:00,
2013-12-22 05:22:00,54.2,53.1,29.84,West,270,0.0,0.0,96,0.18,,,1.37,WeatherTracker,2013-12-22 11:22:00,
2013-12-22 05:27:00,54.2,53.1,29.83,West,270,0.0,0.0,96,0.18,,,1.37,WeatherTracker,2013-12-22 11:27:00,
2013-12-22 05:32:00,54.1,53.0,29.80,West,270,0.0,0.0,96,0.16,,,1.37,WeatherTracker,2013-12-22 11:32:00,
2013-12-22 05:37:00,54.0,52.9,29.82,West,270,0.0,0.0,96,0.15,,,1.37,WeatherTracker,2013-12-22 11:37:00,
2013-12-22 05:42:00,54.0,52.9,29.83,West,270,0.0,0.0,96,0.14,,,1.38,WeatherTracker,2013-12-22 11:42:00,
2013-12-22 05:47:00,53.9,52.8,29.81,West,270,0.0,0.0,96,0.13,,,1.39,WeatherTracker,2013-12-22 11:47:00,
2013-12-22 05:52:00,53.9,52.8,29.84,West,270,0.0,0.0,96,0.12,,,1.40,WeatherTracker,2013-12-22 11:52:00,
2013-12-22 05:57:00,53.9,52.8,29.85,West,270,0.0,0.0,96,0.11,,,1.41,WeatherTracker,2013-12-22 11:57:00,
2013-12-22 06:02:00,53.8,52.7,29.84,West,269,0.0,0.0,96,0.09,,,1.41,WeatherTracker,2013-12-22 12:02:00,
2013-12-22 06:08:00,53.8,52.7,29.82,West,269,0.0,0.0,96,0.07,,,1.41,WeatherTracker,2013-12-22 12:08:00,
2013-12-22 06:13:00,53.7,52.6,29.82,West,270,0.0,0.0,96,0.06,,,1.41,WeatherTracker,2013-12-22 12:13:00,
2013-12-22 06:18:00,53.7,52.6,29.82,West,270,0.0,0.0,96,0.05,,,1.41,WeatherTracker,2013-12-22 12:18:00,
2013-12-22 06:23:00,53.7,52.9,29.82,West,268,0.0,0.0,97,0.04,,,1.41,WeatherTracker,2013-12-22 12:23:00,
2013-12-22 06:28:00,53.6,52.5,29.84,West,267,0.0,0.0,96,0.04,,,1.41,WeatherTracker,2013-12-22 12:28:00,
2013-12-22 06:33:00,53.5,52.4,29.82,West,268,0.0,0.0,96,0.04,,,1.41,WeatherTracker,2013-12-22 12:33:00,
2013-12-22 06:38:00,53.6,52.5,29.87,West,267,0.0,0.0,96,0.04,,,1.41,WeatherTracker,2013-12-22 12:38:00,
2013-12-22 06:43:00,53.5,52.4,29.88,West,267,0.0,0.0,96,0.03,,,1.41,WeatherTracker,2013-12-22 12:43:00,
2013-12-22 06:48:00,53.5,52.4,29.86,West,267,0.0,0.0,96,0.02,,,1.41,WeatherTracker,2013-12-22 12:48:00,
2013-12-22 06:53:00,53.5,52.7,29.85,West,267,0.0,0.0,97,0.01,,,1.41,WeatherTracker,2013-12-22 12:53:00,
2013-12-22 06:58:00,53.4,52.6,29.86,West,267,0.0,0.0,97,0.00,,,1.41,WeatherTracker,2013-12-22 12:58:00,
2013-12-22 07:03:00,53.4,52.6,29.85,West,267,0.0,0.0,97,0.01,,,1.42,WeatherTracker,2013-12-22 13:03:00,
2013-12-22 07:08:00,53.4,52.6,29.87,West,267,0.0,0.0,97,0.02,,,1.43,WeatherTracker,2013-12-22 13:08:00,
2013-12-22 07:13:00,53.3,52.5,29.85,SSE,167,0.0,0.0,97,0.02,,,1.43,WeatherTracker,2013-12-22 13:13:00,
2013-12-22 07:18:00,53.3,52.5,29.86,SSE,167,0.0,0.0,97,0.02,,,1.43,WeatherTracker,2013-12-22 13:18:00,
2013-12-22 07:23:00,53.3,52.5,29.86,SSE,167,0.0,0.0,97,0.02,,,1.43,WeatherTracker,2013-12-22 13:23:00,
2013-12-22 07:28:00,53.3,52.5,29.86,SSE,167,0.0,0.0,97,0.02,,,1.43,WeatherTracker,2013-12-22 13:28:00,
2013-12-22 07:34:00,53.3,52.5,29.85,SSE,167,0.0,0.0,97,0.03,,,1.44,WeatherTracker,2013-12-22 13:34:00,
2013-12-22 07:39:00,53.3,52.5,29.86,SSW,200,0.0,0.0,97,0.03,,,1.44,WeatherTracker,2013-12-22 13:39:00,
2013-12-22 07:44:00,53.3,52.5,29.88,SW,221,3.0,0.0,97,0.03,,,1.44,WeatherTracker,2013-12-22 13:44:00,
2013-12-22 07:49:00,53.4,52.6,29.89,SW,221,1.0,0.0,97,0.03,,,1.44,WeatherTracker,2013-12-22 13:49:00,
2013-12-22 07:54:00,53.4,52.6,29.90,SW,221,1.0,0.0,97,0.03,,,1.44,WeatherTracker,2013-12-22 13:54:00,
2013-12-22 07:59:00,53.4,52.6,29.88,SW,226,0.0,0.0,97,0.03,,,1.44,WeatherTracker,2013-12-22 13:59:00,
2013-12-22 08:04:00,53.4,52.6,29.89,SW,227,0.0,0.0,97,0.02,,,1.44,WeatherTracker,2013-12-22 14:04:00,
2013-12-22 08:09:00,53.4,52.6,29.88,SW,227,0.0,0.0,97,0.02,,,1.44,WeatherTracker,2013-12-22 14:09:00,
2013-12-22 08:51:00,53.5,52.7,29.91,SW,225,0.0,0.0,97,0.00,,,1.44,WeatherTracker,2013-12-22 14:51:00,
2013-12-22 08:56:00,53.5,52.7,29.91,SW,225,0.0,0.0,97,0.00,,,1.44,WeatherTracker,2013-12-22 14:56:00,
2013-12-22 09:01:00,53.5,52.7,29.91,SW,225,0.0,0.0,97,0.00,,,1.44,WeatherTracker,2013-12-22 15:01:00,
2013-12-22 09:06:00,53.6,52.8,29.92,SW,225,0.0,0.0,97,0.00,,,1.44,WeatherTracker,2013-12-22 15:06:00,
2013-12-22 09:11:00,53.6,52.8,29.92,SW,225,0.0,0.0,97,0.00,,,1.44,WeatherTracker,2013-12-22 15:11:00,
2013-12-22 09:16:00,53.7,52.9,29.93,SW,225,0.0,0.0,97,0.00,,,1.44,WeatherTracker,2013-12-22 15:16:00,
2013-12-22 09:21:00,53.7,52.9,29.93,SW,225,0.0,0.0,97,0.00,,,1.44,WeatherTracker,2013-12-22 15:21:00,
2013-12-22 09:26:00,53.8,53.0,29.94,SW,225,0.0,0.0,97,0.00,,,1.44,WeatherTracker,2013-12-22 15:26:00,
2013-12-22 09:31:00,53.8,53.0,29.93,SW,225,0.0,0.0,97,0.00,,,1.44,WeatherTracker,2013-12-22 15:31:00,
2013-12-22 09:36:00,53.9,53.1,29.93,SW,225,2.0,0.0,97,0.00,,,1.44,WeatherTracker,2013-12-22 15:36:00,
2013-12-22 09:41:00,53.9,53.1,29.92,SW,225,0.0,0.0,97,0.00,,,1.44,WeatherTracker,2013-12-22 15:41:00,
2013-12-22 09:46:00,54.0,53.2,29.92,SW,225,0.0,0.0,97,0.00,,,1.44,WeatherTracker,2013-12-22 15:46:00,
2013-12-22 09:51:00,54.1,53.3,29.94,SW,225,0.0,0.0,97,0.00,,,1.44,WeatherTracker,2013-12-22 15:51:00,
2013-12-22 09:56:00,54.1,53.3,29.93,SW,225,0.0,0.0,97,0.00,,,1.44,WeatherTracker,2013-12-22 15:56:00,
2013-12-22 10:36:00,55.0,54.2,29.91,SW,225,0.0,0.0,97,0.00,,,1.44,WeatherTracker,2013-12-22 16:36:00,
2013-12-22 10:41:00,55.1,54.3,29.91,SW,225,0.0,0.0,97,0.00,,,1.44,WeatherTracker,2013-12-22 16:41:00,
2013-12-22 10:46:00,55.1,54.3,29.93,SW,225,0.0,0.0,97,0.00,,,1.44,WeatherTracker,2013-12-22 16:46:00,
2013-12-22 10:51:00,55.2,54.6,29.93,SW,225,0.0,0.0,98,0.00,,,1.44,WeatherTracker,2013-12-22 16:51:00,
2013-12-22 10:56:00,55.2,54.6,29.93,SW,225,0.0,0.0,98,0.00,,,1.44,WeatherTracker,2013-12-22 16:56:00,
2013-12-22 11:01:00,55.2,54.6,29.92,SW,225,0.0,0.0,98,0.00,,,1.44,WeatherTracker,2013-12-22 17:01:00,
2013-12-22 11:06:00,55.2,54.6,29.92,SW,225,0.0,0.0,98,0.00,,,1.44,WeatherTracker,2013-12-22 17:06:00,
2013-12-22 11:11:00,55.2,54.6,29.91,West,267,0.0,0.0,98,0.00,,,1.44,WeatherTracker,2013-12-22 17:11:00,
2013-12-22 11:16:00,55.1,54.5,29.92,West,267,0.0,0.0,98,0.00,,,1.44,WeatherTracker,2013-12-22 17:16:00,
2013-12-22 11:22:00,55.1,54.5,29.91,West,267,0.0,0.0,98,0.00,,,1.44,WeatherTracker,2013-12-22 17:22:00,
2013-12-22 11:27:00,55.1,54.5,29.92,West,267,0.0,0.0,98,0.00,,,1.44,WeatherTracker,2013-12-22 17:27:00,
2013-12-22 11:32:00,55.2,54.6,29.91,West,267,0.0,0.0,98,0.00,,,1.44,WeatherTracker,2013-12-22 17:32:00,
2013-12-22 11:37:00,55.2,54.4,29.91,West,268,2.0,0.0,97,0.00,,,1.44,WeatherTracker,2013-12-22 17:37:00,
2013-12-22 11:42:00,55.2,54.4,29.91,West,268,0.0,0.0,97,0.00,,,1.44,WeatherTracker,2013-12-22 17:42:00,
2013-12-22 11:47:00,55.3,54.5,29.91,West,268,0.0,0.0,97,0.00,,,1.44,WeatherTracker,2013-12-22 17:47:00,
2013-12-22 11:52:00,55.4,54.8,29.91,West,268,0.0,0.0,98,0.00,,,1.44,WeatherTracker,2013-12-22 17:52:00,
2013-12-22 11:57:00,55.6,54.8,29.92,West,268,0.0,0.0,97,0.00,,,1.44,WeatherTracker,2013-12-22 17:57:00,
2013-12-22 12:02:00,55.7,54.9,29.92,West,268,0.0,0.0,97,0.00,,,1.44,WeatherTracker,2013-12-22 18:02:00,
2013-12-22 12:07:00,55.8,55.2,29.92,West,268,0.0,0.0,98,0.00,,,1.44,WeatherTracker,2013-12-22 18:07:00,
2013-12-22 12:12:00,55.8,55.2,29.92,WNW,284,0.0,0.0,98,0.00,,,1.44,WeatherTracker,2013-12-22 18:12:00,
2013-12-22 12:17:00,55.8,55.0,29.92,WNW,285,0.0,0.0,97,0.00,,,1.44,WeatherTracker,2013-12-22 18:17:00,
2013-12-22 12:22:00,55.8,55.0,29.92,WNW,285,0.0,0.0,97,0.00,,,1.44,WeatherTracker,2013-12-22 18:22:00,
2013-12-22 12:27:00,55.8,55.0,29.92,WNW,284,0.0,0.0,97,0.00,,,1.44,WeatherTracker,2013-12-22 18:27:00,
2013-12-22 12:32:00,55.9,55.1,29.92,WNW,285,0.0,0.0,97,0.00,,,1.44,WeatherTracker,2013-12-22 18:32:00,
2013-12-22 12:37:00,55.9,55.1,29.91,WNW,284,0.0,0.0,97,0.00,,,1.44,WeatherTracker,2013-12-22 18:37:00,
2013-12-22 12:42:00,55.8,55.0,29.91,WNW,284,0.0,0.0,97,0.00,,,1.44,WeatherTracker,2013-12-22 18:42:00,
2013-12-22 12:47:00,55.8,55.0,29.92,WNW,285,0.0,0.0,97,0.00,,,1.44,WeatherTracker,2013-12-22 18:47:00,
2013-12-22 12:52:00,55.8,55.0,29.91,WNW,285,0.0,0.0,97,0.00,,,1.44,WeatherTracker,2013-12-22 18:52:00,
2013-12-22 12:58:00,55.8,55.0,29.90,WNW,285,0.0,0.0,97,0.00,,,1.44,WeatherTracker,2013-12-22 18:58:00,
2013-12-22 13:03:00,55.8,55.0,29.90,SSE,167,2.0,0.0,97,0.00,,,1.44,WeatherTracker,2013-12-22 19:03:00,
2013-12-22 13:08:00,55.8,54.7,29.91,SSE,167,0.0,0.0,96,0.00,,,1.44,WeatherTracker,2013-12-22 19:08:00,
2013-12-22 13:13:00,55.9,54.8,29.91,SSE,167,0.0,0.0,96,0.00,,,1.44,WeatherTracker,2013-12-22 19:13:00,
2013-12-22 13:18:00,56.0,54.9,29.91,SSE,167,2.0,0.0,96,0.00,,,1.44,WeatherTracker,2013-12-22 19:18:00,
2013-12-22 13:23:00,56.0,54.9,29.92,SSE,167,0.0,0.0,96,0.00,,,1.44,WeatherTracker,2013-12-22 19:23:00,
2013-12-22 13:28:00,56.1,55.0,29.91,SSE,167,0.0,0.0,96,0.00,,,1.44,WeatherTracker,2013-12-22 19:28:00,
2013-12-22 13:33:00,56.1,55.0,29.91,SSE,167,0.0,0.0,96,0.00,,,1.44,WeatherTracker,2013-12-22 19:33:00,
2013-12-22 13:38:00,56.0,54.9,29.93,South,173,0.0,0.0,96,0.00,,,1.44,WeatherTracker,2013-12-22 19:38:00,
2013-12-22 13:43:00,56.0,54.9,29.92,South,173,0.0,0.0,96,0.00,,,1.44,WeatherTracker,2013-12-22 19:43:00,
2013-12-22 13:48:00,55.9,54.8,29.91,South,173,0.0,0.0,96,0.00,,,1.44,WeatherTracker,2013-12-22 19:48:00,
2013-12-22 13:53:00,55.9,54.5,29.90,South,174,0.0,0.0,95,0.00,,,1.44,WeatherTracker,2013-12-22 19:53:00,
2013-12-22 13:58:00,56.0,54.6,29.92,South,171,0.0,0.0,95,0.00,,,1.44,WeatherTracker,2013-12-22 19:58:00,
2013-12-22 14:03:00,56.0,54.6,29.91,SSW,207,0.0,0.0,95,0.00,,,1.44,WeatherTracker,2013-12-22 20:03:00,
2013-12-22 14:08:00,56.1,54.7,29.92,WSW,238,0.0,0.0,95,0.00,,,1.44,WeatherTracker,2013-12-22 20:08:00,
2013-12-22 14:13:00,56.2,54.8,29.93,WSW,239,0.0,0.0,95,0.00,,,1.44,WeatherTracker,2013-12-22 20:13:00,
2013-12-22 14:18:00,56.2,54.8,29.92,WSW,238,0.0,0.0,95,0.00,,,1.44,WeatherTracker,2013-12-22 20:18:00,
2013-12-22 14:23:00,56.2,54.8,29.92,SSE,167,0.0,0.0,95,0.00,,,1.44,WeatherTracker,2013-12-22 20:23:00,
2013-12-22 14:28:00,56.2,54.5,29.93,South,187,0.0,0.0,94,0.00,,,1.44,WeatherTracker,2013-12-22 20:28:00,
2013-12-22 14:34:00,56.3,54.9,29.90,South,187,1.0,0.0,95,0.00,,,1.44,WeatherTracker,2013-12-22 20:34:00,
2013-12-22 14:39:00,56.3,54.6,29.91,South,187,0.0,0.0,94,0.00,,,1.44,WeatherTracker,2013-12-22 20:39:00,
2013-12-22 14:44:00,56.4,54.7,29.91,SSW,213,0.0,0.0,94,0.00,,,1.44,WeatherTracker,2013-12-22 20:44:00,
2013-12-22 14:49:00,56.4,54.7,29.91,SSW,213,0.0,0.0,94,0.00,,,1.44,WeatherTracker,2013-12-22 20:49:00,
2013-12-22 14:54:00,56.4,54.7,29.90,SSW,213,0.0,0.0,94,0.00,,,1.44,WeatherTracker,2013-12-22 20:54:00,
2013-12-22 14:59:00,56.5,54.8,29.91,SSW,213,0.0,0.0,94,0.00,,,1.44,WeatherTracker,2013-12-22 20:59:00,
2013-12-22 15:04:00,56.5,54.8,29.93,SSW,213,0.0,0.0,94,0.00,,,1.44,WeatherTracker,2013-12-22 21:04:00,
2013-12-22 15:09:00,56.6,54.9,29.92,SSW,213,0.0,0.0,94,0.00,,,1.44,WeatherTracker,2013-12-22 21:09:00,
2013-12-22 15:14:00,56.6,54.9,29.93,SSW,213,0.0,0.0,94,0.00,,,1.44,WeatherTracker,2013-12-22 21:14:00,
2013-12-22 15:19:00,56.6,54.9,29.91,SSW,213,0.0,0.0,94,0.00,,,1.44,WeatherTracker,2013-12-22 21:19:00,
2013-12-22 15:24:00,56.6,54.9,29.91,SSW,213,0.0,0.0,94,0.00,,,1.44,WeatherTracker,2013-12-22 21:24:00,
2013-12-22 15:28:00,56.6,54.9,29.92,SSW,213,0.0,0.0,94,0.00,,,1.44,WeatherTracker,2013-12-22 21:28:00,
2013-12-22 15:33:00,56.6,54.9,29.92,SSW,213,0.0,0.0,94,0.00,,,1.44,WeatherTracker,2013-12-22 21:33:00,
2013-12-22 15:38:00,56.6,54.6,29.91,South,178,0.0,0.0,93,0.00,,,1.44,WeatherTracker,2013-12-22 21:38:00,
2013-12-22 15:43:00,56.5,54.5,29.91,SE,126,0.0,0.0,93,0.00,,,1.44,WeatherTracker,2013-12-22 21:43:00,
2013-12-22 15:48:00,56.5,54.5,29.93,SE,132,0.0,0.0,93,0.00,,,1.44,WeatherTracker,2013-12-22 21:48:00,
2013-12-22 15:53:00,56.4,54.4,29.95,SSW,199,0.0,0.0,93,0.00,,,1.44,WeatherTracker,2013-12-22 21:53:00,
2013-12-22 15:58:00,56.4,54.4,29.95,SSW,207,0.0,0.0,93,0.00,,,1.44,WeatherTracker,2013-12-22 21:58:00,
2013-12-22 16:03:00,56.3,54.3,29.95,SSW,207,0.0,0.0,93,0.00,,,1.44,WeatherTracker,2013-12-22 22:03:00,
2013-12-22 16:08:00,56.2,54.5,29.96,West,279,0.0,0.0,94,0.00,,,1.44,WeatherTracker,2013-12-22 22:08:00,
2013-12-22 16:13:00,56.1,54.4,29.95,West,278,0.0,0.0,94,0.00,,,1.44,WeatherTracker,2013-12-22 22:13:00,
2013-12-22 16:18:00,56.1,54.4,29.96,West,277,0.0,0.0,94,0.00,,,1.44,WeatherTracker,2013-12-22 22:18:00,
2013-12-22 16:23:00,56.0,54.3,29.96,West,277,0.0,0.0,94,0.00,,,1.44,WeatherTracker,2013-12-22 22:23:00,
2013-12-22 16:28:00,56.0,54.3,29.95,West,277,0.0,0.0,94,0.00,,,1.44,WeatherTracker,2013-12-22 22:28:00,
2013-12-22 16:33:00,56.0,54.3,29.95,West,277,0.0,0.0,94,0.00,,,1.44,WeatherTracker,2013-12-22 22:33:00,
2013-12-22 16:38:00,55.9,54.2,29.95,West,278,0.0,0.0,94,0.00,,,1.44,WeatherTracker,2013-12-22 22:38:00,
2013-12-22 16:43:00,55.8,54.1,29.96,West,278,0.0,0.0,94,0.00,,,1.44,WeatherTracker,2013-12-22 22:43:00,
2013-12-22 16:48:00,55.8,54.1,29.96,West,278,0.0,0.0,94,0.00,,,1.44,WeatherTracker,2013-12-22 22:48:00,
2013-12-22 16:53:00,55.7,54.0,29.96,West,278,0.0,0.0,94,0.00,,,1.44,WeatherTracker,2013-12-22 22:53:00,
2013-12-22 16:58:00,55.6,53.9,29.96,West,278,0.0,0.0,94,0.00,,,1.44,WeatherTracker,2013-12-22 22:58:00,
2013-12-22 17:03:00,55.5,53.8,29.97,West,278,0.0,0.0,94,0.00,,,1.44,WeatherTracker,2013-12-22 23:03:00,
2013-12-22 17:08:00,55.5,53.8,29.96,West,277,0.0,0.0,94,0.00,,,1.44,WeatherTracker,2013-12-22 23:08:00,
2013-12-22 17:13:00,55.4,53.7,29.97,West,277,0.0,0.0,94,0.00,,,1.44,WeatherTracker,2013-12-22 23:13:00,
2013-12-22 17:18:00,55.4,53.7,29.97,West,278,0.0,0.0,94,0.00,,,1.44,WeatherTracker,2013-12-22 23:18:00,
2013-12-22 17:23:00,55.4,53.7,29.97,West,275,3.0,0.0,94,0.00,,,1.44,WeatherTracker,2013-12-22 23:23:00,
2013-12-22 17:28:00,55.4,53.7,29.98,West,272,0.0,0.0,94,0.00,,,1.44,WeatherTracker,2013-12-22 23:28:00,
2013-12-22 17:33:00,55.4,54.0,29.99,West,272,0.0,0.0,95,0.00,,,1.44,WeatherTracker,2013-12-22 23:33:00,
2013-12-22 17:38:00,55.4,54.0,29.98,West,272,0.0,0.0,95,0.00,,,1.44,WeatherTracker,2013-12-22 23:38:00,
2013-12-22 17:43:00,55.4,54.0,29.97,West,272,0.0,0.0,95,0.00,,,1.44,WeatherTracker,2013-12-22 23:43:00,
2013-12-22 17:48:00,55.3,53.9,29.98,West,272,0.0,0.0,95,0.00,,,1.44,WeatherTracker,2013-12-22 23:48:00,
2013-12-22 17:53:00,55.4,54.0,29.98,West,272,0.0,0.0,95,0.00,,,1.44,WeatherTracker,2013-12-22 23:53:00,
2013-12-22 17:59:00,55.3,53.9,29.98,West,272,0.0,0.0,95,0.00,,,1.44,WeatherTracker,2013-12-22 23:59:00,
2013-12-22 18:03:00,55.3,53.9,29.98,West,272,0.0,0.0,95,0.00,,,1.44,WeatherTracker,2013-12-23 00:03:00,
2013-12-22 18:08:00,55.3,53.9,29.99,West,272,0.0,0.0,95,0.00,,,1.44,WeatherTracker,2013-12-23 00:08:00,
2013-12-22 18:14:00,55.3,53.9,29.98,West,272,0.0,0.0,95,0.00,,,1.44,WeatherTracker,2013-12-23 00:14:00,
2013-12-22 18:19:00,55.3,53.9,29.98,West,272,0.0,0.0,95,0.00,,,1.44,WeatherTracker,2013-12-23 00:19:00,
2013-12-22 18:24:00,55.3,53.9,29.99,West,272,0.0,0.0,95,0.00,,,1.44,WeatherTracker,2013-12-23 00:24:00,
2013-12-22 18:29:00,55.2,53.8,29.98,West,272,0.0,0.0,95,0.00,,,1.44,WeatherTracker,2013-12-23 00:29:00,
2013-12-22 18:34:00,55.2,53.8,29.98,West,272,0.0,0.0,95,0.00,,,1.44,WeatherTracker,2013-12-23 00:34:00,
2013-12-22 18:39:00,55.1,53.7,29.99,West,272,0.0,0.0,95,0.00,,,1.44,WeatherTracker,2013-12-23 00:39:00,
2013-12-22 18:44:00,55.1,53.7,29.97,West,272,0.0,0.0,95,0.00,,,1.44,WeatherTracker,2013-12-23 00:44:00,
2013-12-22 19:40:00,54.8,53.7,29.97,West,272,0.0,0.0,96,0.00,,,1.44,WeatherTracker,2013-12-23 01:40:00,
2013-12-22 19:45:00,54.8,53.7,29.98,West,272,0.0,0.0,96,0.00,,,1.44,WeatherTracker,2013-12-23 01:45:00,
2013-12-22 19:50:00,54.8,53.7,29.97,West,272,0.0,0.0,96,0.00,,,1.44,WeatherTracker,2013-12-23 01:50:00,
2013-12-22 19:55:00,54.8,53.7,29.98,West,272,0.0,0.0,96,0.00,,,1.44,WeatherTracker,2013-12-23 01:55:00,
2013-12-22 20:00:00,54.8,53.7,29.97,West,272,0.0,0.0,96,0.00,,,1.44,WeatherTracker,2013-12-23 02:00:00,
2013-12-22 20:05:00,54.7,53.6,29.98,West,272,0.0,0.0,96,0.00,,,1.44,WeatherTracker,2013-12-23 02:05:00,
2013-12-22 20:10:00,54.8,53.7,29.99,West,272,0.0,0.0,96,0.00,,,1.44,WeatherTracker,2013-12-23 02:10:00,
2013-12-22 20:15:00,54.8,53.7,30.00,West,272,0.0,0.0,96,0.00,,,1.44,WeatherTracker,2013-12-23 02:15:00,
2013-12-22 20:21:00,54.8,53.7,30.00,West,272,0.0,0.0,96,0.00,,,1.44,WeatherTracker,2013-12-23 02:21:00,
2013-12-22 20:26:00,54.8,53.7,30.01,West,272,0.0,0.0,96,0.00,,,1.44,WeatherTracker,2013-12-23 02:26:00,